カタログに戻る

HJS-9C

運用中科学VLEO
NORAD 68833·PAYLOAD·🇨🇳 China

打ち上げ Apr 24, 2026 から Xichang Satellite Launch Center

Loading…

次のパス (今後24時間)

TLE

最新Source: Space-Track

元期: Sep 14, 2026, 13:09 UTC

1 68833U 26091C   26257.54816115  .00014686  00000-0  69843-3 0  9997
2 68833  55.0047 351.2377 0004843 300.6323  59.4218 15.19439427 21787

AllMySatでHJS-9Cをリアルタイム追跡

Download on the App Store